Showing default

SPIRIT, 58468

Orbit data source: Space-Track

SPIRIT, 58468 is a payload satellite owned by U Melb. (AU) in SSO that was launched on Fri, 01 Dec 2023 UTC via an FALCON 9 launch vehicle from the Air Force Western Test Range (AFWTR). Payload-class satellites include a variety of spacecraft equipped with specific instruments for various scientific and technological missions. These include communications satellites like Starlink; space stations such as the ISS; scientific satellites like the Hubble; Earth observation satellites from companies like Planet Labs, Umbra, and HawkEye 360; GPS; miniature CubeSats for education and research; and military/defense satellites.

Loading next visibility...
Identifier
58468, 2023-185G
Orbit
SSO
Country
Flag of AUAU / AUS
Related business
Manufacturer
U Melb.
Mission
Operational Amateur Astronomy
Bus & Motor
CUBESAT 6U, Unknown motor
Mass
11.5 kg wet, 11.5 kg dry
Launch date (UTC)
2023-12-01 (2 years ago)
Launch vehicle
FALCON 9
Launch site
Air Force Western Test Range (AFWTR)
Object type
Payload
Rocket body
Debris
Shape & HBR
Box, 0.1 m
Radar Cross Section
0.080 m², Medium (>0.1 m² and < 1m²)

Expand to show TLE details & history
Last TLE update: 16 hours ago

TLE from 16 hours ago
0 SPIRIT
1 58468U 23185G   25306.50803806  .00038760  00000-0  76414-3 0  9995
2 58468  97.3609  18.0929 0006015 287.9431  72.1163 15.47085326107191
Epoch: 2025-11-02T12:11Z
TLE epoch observation values (Epoch: 2025-11-02T12:11:34.488Z)
Latitude
-0.00001°
Longitude
153.17644°
Altitude
427.131 km
Speed
7.656 km/s
True Right ascension
01h 12m 22s
True Declination
0° 00' 00"
Sunlit
Object was in full shadow at epoch
Visualization orbit readout
Latitude
Unknown
Longitude
Unknown
Altitude
Unknown
Speed
Unknown
Apparent Right ascension
Unknown
Apparent Declination
Unknown
Sunlit
N/A
Visualization observer readout
Local Sidereal Time
23:58:47
Azimuth
Unknown
Elevation
Unknown
Doppler factor
Unknown
Orbital elements
Apogee altitude
426.276 km
Perigee altitude
418.095 km
Semi-major axis
6,800.323 km
Eccentricity
0.0006
Inclination
97.3609°
RAAN
18.0929°
Arg. of periapsis
287.9431°
True anomaly
72.18191°
Mean anomaly
72.1163°
Eccentric anomaly
72.1491°
Mean motion
3.87034 °/min
Orbital period
93.02 mins
BSTAR
0.00076414
Loading maneuver chart data...
Computing Atmospheric mass density...
Loading historical data...
Loading historical data...
Loading historical data...
Loading historical data...
Loading historical data...
Loading historical data...
Loading historical data...

Documentation

Showing up to 5 results
|